AirNav   Everest Fuels
 
 1543 users online  

7PS0 B S Corporation Steelton Plant Heliport
Steelton, Pennsylvania, USA

GOING TO STEELTON?


FAA INFORMATION EFFECTIVE 31 DECEMBER 2020

Location

FAA Identifier: 7PS0
Lat/Long: 40-13-50.3250N 076-50-11.9000W
40-13.838750N 076-50.198333W
40.2306458,-76.8366389
(estimated)
Elevation: 300 ft. / 91 m (estimated)
Variation: 10W (1985)
Time zone: UTC -5 (UTC -4 during Daylight Saving Time)
Zip code: 17113

Heliport Operations

Heliport use: Private use. Permission required prior to landing
Activation date: 10/1987
Control tower: no
ARTCC: NEW YORK CENTER
FSS: WILLIAMSPORT FLIGHT SERVICE STATION
Attendance: CONTINUOUS
Segmented circle: yes

Heliport Communications

WX ASOS at CXY (1.1 nm SW): PHONE 717-770-0880
WX ASOS at MDT (4 nm SE): 118.8 (717-944-1372)
WX ASOS at MUI (17 nm NE): 124.175 (717-861-2536)
WX ASOS at THV (19 nm S): 119.275 (717-792-5529)

Nearby radio navigation aids

VOR radial/distance  VOR name  Freq  Var
HARr122/11.5HARRISBURG VORTAC112.5010W
RAVr220/22.2RAVINE VORTAC114.6011W
LRPr294/25.9LANCASTER VOR/DME117.3009W
SEGr184/33.7SELINSGROVE VOR/DME110.4008W

 
NDB name  Hdg/Dist  Freq  Var  ID
ENOLA119/3.120411WMD -- -..
LATLE079/8.421911WCX -.-. -..-
BELLGROVE236/17.932810WBZJ -... --.. .---

Heliport Services

Fuel available: MOGAS

Runway Information

Helipad H1

Dimensions: 45 x 45 ft. / 14 x 14 m
Surface: asphalt
Traffic pattern: leftleft

Heliport Ownership and Management from official FAA records

Ownership: Privately-owned
Owner: ARCELORMITTAL STEALTON LLC
215 S. FRONT ST.
STEELTON, PA 17113
Phone 717-986-2453
Manager: STEVEN C. TAYLOR
215 S. FRONT ST.
STEELTON, PA 17113
Phone 717-096-2542
OTR CTC MICHAEL BEALE 717-986-2750; MICHAEL.BEALE@ARCELORMITTAL.COM.

Additional Remarks

FOR CD CTC HARRISBURG APCH AT 800-932-0712.

Instrument Procedures

There are no published instrument procedures at 7PS0.

Some nearby airports with instrument procedures:

KCXY - Capital City Airport (1 nm SW)
KMDT - Harrisburg International Airport (4 nm SE)
58N - Reigle Field Airport (12 nm E)
N71 - Donegal Springs Airpark (15 nm SE)
N94 - Carlisle Airport (16 nm W)
KMUI - Muir Army Airfield (Fort Indiantown Gap) (17 nm NE)
KTHV - York Airport (19 nm S)
 
Loc | Ops | Rwys | IFR | FBO | Links
Com | Nav | Svcs | Stats | Notes
Area around 7PS0 (B S Corporation Steelton Plant Heliport)
 
Road maps at: MapQuest Bing Google
 
Aerial photo
No photo
 
Sectional chart

 
Airport distance calculator
Flying to B S Corporation Steelton Plant Heliport? Find the distance to fly.

From to 7PS0

Sunrise and sunset
Times for 15-Jan-2021
 Local
(UTC-5)
 Zulu
(UTC)
Morning civil twilight06:5911:59
Sunrise07:2912:29
Sunset17:0522:05
Evening civil twilight17:3522:35

Current date and time
Zulu (UTC)  15-Jan-2021 18:07:47
Local (UTC-5)  15-Jan-2021 13:07:47
 
METAR
KCXY 151756Z 10009KT 4SM HZ BKN016 BKN022 OVC027 07/03 A2980 RMK AO2 PRESFR SLP095 T00670028 10067 20000 58034
KMDT 
4nm SE 
151756Z 13007KT 4SM HZ OVC016 06/03 A2980 RMK AO2 SLP095 T00610028 10061 20000 58033
KMUI 
17nm NE 
151756Z 08008KT 3SM BR OVC008 05/04 A2982 RMK AO2A SLP105 T00450041 10045 21005 57031
KTHV 
19nm S 
151753Z AUTO 13011KT 8SM FEW023 08/02 A2978 RMK AO2 PRESFR SLP090 T00780017 10083 21011 58035
TAF
KMDT 
4nm SE 
151126Z 1512/1612 09005KT P6SM BKN250 TEMPO 1512/1513 5SM BR FM151600 13010G20KT P6SM SCT040 BKN100 FM160100 14008G16KT 5SM -SHRA BR OVC030 FM160700 28007KT P6SM -SHRASN BKN025
KMUI 
17nm NE 
151100Z 1511/1617 11009KT 9999 BKN100 QNH2974INS BECMG 1600/1601 14009KT 9000 -RA OVC010 620606 510033 QNH2959INS BECMG 1612/1613 28010G15KT 9999 NSW FEW030 QNH2952INS TX06/1607Z TN00/1512Z
NOTAMs
Click for the latest NOTAMs
NOTAMs are issued by the DoD/FAA and will open in a separate window not controlled by AirNav.

 

 
 

Would you like to see your business listed on this page?

 If your business provides an interesting product or service to pilots, flight crews, aircraft, or users of the B S Corporation Steelton Plant Heliport, you should consider listing it here.  To start the listing process, click on the button below
 
Add a business
 

Other Pages about B S Corporation Steelton Plant Heliport

Update a link
 
Copyright © AirNav, LLC. All rights reserved. Privacy Policy  Contact